Farmingdale, NY

6:13 AM EDT on June 20, 2018 (GMT -0400)
Republic

Weather History for KFRG - June, 2018

Change the Weather History Date:

Thursday, June 14, 2018

  Actual Average Record
Temperature  
Mean Temperature 76 °F -  
Max Temperature 84 °F 73 °F 91 °F (2005)
Min Temperature 68 °F 58 °F 53 °F (2000)
Cooling Degree Days 11    
Growing Degree Days 26 (Base 50)    
Moisture  
Dew Point 54 °F    
Average Humidity 53    
Maximum Humidity 93    
Minimum Humidity 28    
Precipitation  
Precipitation 0.00 in - - ()
Sea Level Pressure  
Sea Level Pressure 29.77 in    
Wind  
Wind Speed 9 mph (WNW)    
Max Wind Speed 16 mph    
Max Gust Speed 26 mph    
Visibility 10 miles    
Events      
Averages and records for this station are not official NWS values.
T = Trace of Precipitation, MM = Missing Value Source: NWS Daily Summary

Daily Weather History Graph

Daily Weather History Graph

Search for Another Location

Airport or City:

Astronomy

Jun. 14, 2018 Rise Set
Actual Time 5:21 AM EDT 8:26 PM EDT
Civil Twilight 4:48 AM EDT 8:59 PM EDT
Nautical Twilight 4:05 AM EDT 9:42 PM EDT
Astronomical Twilight 3:15 AM EDT 10:32 PM EDT
Moon 6:16 AM EDT (6/14) 9:23 PM EDT (6/14)
Length of Visible Light 16h 11m
Length of Day
15h 04m
New Moon, 1% of the Moon is Illuminated
Jun 14
New Moon
Jun 20
First Quarter
Jun 28
Full
Jul 6
Last Quarter
Jul 12
New

Hourly Weather History & Observations

Time (EDT) Temp. Dew Point Humidity Pressure Visibility Wind Dir Wind Speed Gust Speed Precip Events Conditions
12:53 AM 69.1 °F 66.9 °F 93% 29.74 in 10.0 mi SSW 6.9 mph - N/A   Clear
1:35 AM 72.0 °F 68.0 °F 87% 29.74 in 10.0 mi WNW 5.8 mph - N/A   Overcast
1:53 AM 72.0 °F 69.1 °F 91% 29.73 in 10.0 mi West 6.9 mph - N/A   Mostly Cloudy
2:53 AM 72.0 °F 69.1 °F 91% 29.73 in 10.0 mi West 4.6 mph - N/A   Partly Cloudy
3:53 AM 72.0 °F 66.0 °F 81% 29.74 in 10.0 mi NW 8.1 mph 17.3 mph N/A   Partly Cloudy
4:53 AM 70.0 °F 63.0 °F 78% 29.75 in 10.0 mi WNW 8.1 mph - N/A   Clear
5:53 AM 68.0 °F 59.0 °F 73% 29.77 in 10.0 mi West 9.2 mph - N/A   Clear
6:53 AM 69.1 °F 55.9 °F 63% 29.78 in 10.0 mi WNW 13.8 mph 20.7 mph N/A   Clear
7:53 AM 70.0 °F 53.1 °F 55% 29.78 in 10.0 mi WNW 9.2 mph 19.6 mph N/A   Clear
8:53 AM 72.0 °F 51.1 °F 48% 29.79 in 10.0 mi WNW 11.5 mph 21.9 mph N/A   Clear
9:53 AM 73.9 °F 50.0 °F 43% 29.78 in 10.0 mi WNW 13.8 mph 25.3 mph N/A   Clear
10:53 AM 75.9 °F 48.9 °F 38% 29.78 in 10.0 mi West 13.8 mph 25.3 mph N/A   Clear
11:53 AM 79.0 °F 50.0 °F 36% 29.77 in 10.0 mi West 12.7 mph 24.2 mph N/A   Clear
12:53 PM 80.1 °F 48.9 °F 34% 29.75 in 10.0 mi WNW 16.1 mph 26.5 mph N/A   Clear
1:53 PM 82.0 °F 48.0 °F 30% 29.75 in 10.0 mi NW 16.1 mph 20.7 mph N/A   Clear
2:53 PM 82.0 °F 48.0 °F 30% 29.74 in 10.0 mi NW 12.7 mph 21.9 mph N/A   Clear
3:53 PM 82.0 °F 48.0 °F 30% 29.74 in 10.0 mi WNW 16.1 mph 24.2 mph N/A   Clear
4:53 PM 84.0 °F 48.0 °F 28% 29.74 in 10.0 mi NW 15.0 mph 21.9 mph N/A   Partly Cloudy
5:53 PM 82.9 °F 46.9 °F 28% 29.75 in 10.0 mi NW 12.7 mph 24.2 mph N/A   Clear
6:53 PM 82.0 °F 48.0 °F 30% 29.76 in 10.0 mi NW 11.5 mph - N/A   Clear
7:53 PM 79.0 °F 50.0 °F 36% 29.78 in 10.0 mi NNW 6.9 mph - N/A   Partly Cloudy
8:53 PM 75.9 °F 48.9 °F 38% 29.81 in 10.0 mi NNW 8.1 mph - N/A   Partly Cloudy
9:53 PM 71.1 °F 53.1 °F 53% 29.85 in 10.0 mi NNE 10.4 mph - N/A   Clear
10:53 PM 69.1 °F 53.1 °F 57% 29.86 in 10.0 mi North 5.8 mph - N/A   Clear
11:53 PM 69.1 °F 50.0 °F 51% 29.87 in 10.0 mi NNW 8.1 mph - N/A   Partly Cloudy